Probability
0 0 0 0 0 0 0 0 0 0 0 0 0 0 0 0 0 6 6 6 6 16 16 3 6 26 39 35 61 97 90 97 90 87 84 39 68 94 84 87 74 100 100
0 0 0 0 0 0 0 0 0 0 0 0 0 0 0 0 0 0 0 0 0 0 6 16 13 10 23 52 87 94 97 94 97 100 100 84 84 100 90 90 39 100 100
0 0 0 0 0 0 0 0 0 0 0 0 0 0 0 0 0 0 0 0 0 0 0 3 3 6 10 29 84 94 100 100 100 100 100 13 0 74 100 100 94 100 100
0 0 0 0 0 0 0 0 0 0 0 0 0 0 0 0 0 0 0 0 0 0 0 0 0 3 6 10 55 81 100 100 100 100 61 3 0 6 97 100 100 100 100
0 0 0 0 0 0 0 0 0 0 0 0 0 0 0 0 0 0 0 0 0 0 0 0 0 0 0 6 35 39 77 100 100 100 26 0 0 0 61 100 100 100 100
0 0 0 0 0 0 0 0 0 0 0 0 0 0 0 0 0 0 0 0 0 0 0 0 0 0 0 0 0 19 68 97 100 13 3 0 0 0 87 100 100 100 100
0 0 0 0 0 0 0 0 0 0 0 0 0 0 0 0 0 0 0 0 0 0 0 0 0 0 0 0 0 0 19 81 45 0 0 0 0 0 97 100 100 100 100
0 0 0 0 0 0 0 0 0 0 0 0 0 0 0 0 0 0 0 0 0 0 0 0 0 0 0 0 0 0 0 13 0 0 0 0 0 3 100 100 100 100 100
0 0 0 0 0 0 0 0 0 0 0 0 0 0 0 0 0 0 0 0 0 0 0 0 0 0 0 0 0 0 0 0 0 0 0 0 0 87 100 100 100 100 100
0 0 0 0 0 0 0 0 0 0 0 0 0 0 0 0 0 0 0 0 0 0 0 0 0 0 0 0 0 0 0 0 0 0 0 0 0 74 100 100 100 100 100
0 0 0 0 0 0 0 0 0 0 0 0 0 0 0 0 0 0 0 0 0 0 0 0 0 0 0 0 0 0 0 0 0 0 0 0 0 52 94 100 100 100 100
0 0 0 0 0 0 0 0 0 0 0 0 0 0 0 0 0 0 0 0 0 0 0 0 0 0 0 0 0 0 0 0 0 0 0 0 0 39 71 97 100 100 100
0 0 0 0 0 0 0 0 0 0 0 0 0 0 0 0 0 0 0 0 0 0 0 0 0 0 0 0 0 0 0 0 0 0 0 0 0 6 55 87 100 100 100
0 0 0 0 0 0 0 0 0 0 0 0 0 0 0 0 0 0 0 0 0 0 0 0 0 0 0 0 0 0 0 0 0 0 0 0 0 0 16 87 100 100 94
0 0 0 0 0 0 0 0 0 0 0 0 0 0 0 0 0 0 0 0 0 0 0 0 0 0 0 0 0 0 0 0 0 0 0 0 0 0 0 65 97 97 94
0 0 0 0 0 0 0 0 0 0 0 0 0 0 0 0 0 0 0 0 0 0 0 0 0 0 0 0 0 0 0 0 0 0 0 0 0 0 0 10 39 77 87
0 0 0 0 0 0 0 0 0 0 0 0 0 0 0 0 0 0 0 0 0 0 0 0 0 0 0 0 0 0 0 0 0 0 0 0 0 0 0 0 0 13 55
0 0 0 0 0 0 0 0 0 0 0 0 0 0 0 0 0 0 0 0 0 0 0 0 0 0 0 0 0 0 0 0 0 0 0 0 0 0 0 0 0 0 0
0 0 0 0 0 0 0 0 0 0 0 0 0 0 0 0 0 0 0 0 0 0 0 0 0 0 0 0 0 0 0 0 0 0 0 0 0 0 0 0 0 0 0
0 0 0 0 0 0 0 0 0 0 0 0 0 0 0 0 0 0 0 0 0 0 0 0 0 0 0 0 0 0 0 0 0 0 0 0 0 0 0 0 0 0 0
0 0 0 0 0 0 0 0 0 0 0 0 0 0 0 0 0 0 0 0 0 0 0 0 0 0 0 0 0 0 0 0 0 0 0 0 0 0 0 0 0 0 0
0 0 0 0 0 0 0 0 0 0 0 0 0 0 0 0 0 0 0 0 0 0 0 0 0 0 0 0 0 0 0 0 0 0 0 0 0 0 0 0 0 0 0
0 0 0 0 0 0 0 0 0 0 0 0 0 0 0 0 0 0 0 0 0 0 0 0 0 0 0 0 0 0 0 0 0 0 0 0 0 0 0 0 0 0 0
0 0 0 0 0 0 0 0 0 0 0 0 0 0 0 0 0 0 0 0 0 0 0 0 0 0 0 0 0 0 0 0 0 0 0 0 0 0 0 0 0 0 0
0 0 0 0 0 0 0 0 0 0 0 0 0 0 0 0 0 0 0 0 0 0 0 0 0 0 0 0 0 0 0 0 0 0 0 0 0 0 0 0 0 0 0
0 0 0 0 0 0 0 0 0 0 0 0 0 0 0 0 0 0 0 0 0 0 0 0 0 0 0 0 0 0 0 0 0 0 0 0 0 0 0 0 0 0 0
Height
5876 5875 5875 5874 5873 5872 5870 5869 5868 5866 5865 5864 5863 5862 5862 5861 5861 5861 5861 5860 5860 5860 5860 5859 5859 5858 5858 5857 5858 5859 5859 5860 5860 5861 5861 5862 5862 5863 5863 5863 5865 5866 5868
5874 5873 5872 5870 5869 5867 5866 5864 5862 5861 5859 5858 5857 5855 5854 5854 5853 5853 5853 5853 5852 5852 5852 5853 5853 5853 5852 5852 5852 5852 5853 5854 5855 5856 5857 5858 5859 5860 5860 5860 5861 5862 5864
5871 5870 5868 5867 5865 5863 5861 5859 5858 5856 5854 5852 5850 5849 5847 5846 5845 5844 5843 5843 5843 5843 5844 5844 5845 5845 5845 5846 5846 5846 5846 5847 5849 5850 5851 5853 5855 5856 5857 5857 5858 5859 5861
5870 5868 5866 5864 5862 5860 5858 5856 5853 5851 5849 5847 5845 5843 5841 5839 5837 5835 5834 5833 5833 5833 5833 5834 5835 5836 5837 5837 5838 5838 5839 5840 5842 5843 5845 5847 5850 5851 5853 5853 5854 5855 5857
5868 5866 5864 5861 5859 5856 5854 5851 5849 5846 5843 5840 5838 5835 5833 5831 5829 5827 5825 5824 5823 5823 5822 5823 5824 5825 5826 5827 5828 5830 5831 5832 5834 5836 5838 5840 5843 5846 5848 5849 5851 5852 5853
5865 5863 5860 5858 5855 5852 5848 5845 5842 5839 5836 5833 5831 5828 5825 5823 5820 5818 5816 5814 5813 5812 5812 5812 5812 5813 5815 5816 5818 5819 5821 5823 5825 5828 5830 5833 5836 5838 5841 5843 5845 5847 5849
5862 5859 5856 5852 5848 5845 5841 5838 5834 5830 5827 5824 5820 5818 5815 5812 5809 5807 5805 5803 5802 5801 5800 5801 5801 5802 5803 5804 5806 5807 5810 5812 5815 5818 5821 5824 5828 5830 5832 5835 5838 5841 5843
5857 5854 5850 5846 5841 5837 5832 5828 5824 5819 5815 5812 5808 5805 5803 5800 5796 5794 5792 5790 5789 5788 5788 5788 5789 5789 5790 5791 5793 5795 5797 5800 5804 5808 5811 5814 5819 5822 5824 5827 5831 5834 5837
5852 5848 5844 5839 5834 5828 5823 5817 5812 5807 5802 5798 5794 5790 5787 5783 5780 5777 5775 5774 5774 5773 5774 5774 5774 5775 5776 5778 5780 5782 5785 5788 5792 5796 5800 5804 5809 5813 5815 5818 5821 5826 5829
5845 5840 5835 5830 5824 5818 5812 5805 5799 5793 5787 5781 5777 5773 5768 5764 5761 5758 5755 5754 5755 5755 5757 5757 5758 5759 5761 5763 5765 5768 5771 5775 5779 5783 5788 5792 5797 5802 5805 5808 5812 5816 5821
5837 5831 5826 5820 5813 5807 5800 5792 5785 5777 5770 5763 5758 5753 5747 5742 5738 5735 5733 5732 5732 5733 5735 5736 5738 5741 5743 5746 5749 5752 5756 5760 5765 5770 5775 5779 5785 5790 5794 5797 5801 5806 5811
5830 5824 5818 5811 5804 5796 5788 5779 5771 5762 5753 5745 5738 5734 5727 5720 5715 5711 5708 5707 5708 5708 5710 5712 5716 5719 5723 5727 5730 5735 5739 5744 5749 5755 5761 5766 5771 5777 5781 5785 5790 5795 5800
5823 5816 5808 5800 5791 5781 5772 5762 5753 5743 5733 5724 5715 5710 5703 5696 5690 5686 5682 5681 5682 5682 5684 5686 5690 5694 5699 5705 5710 5715 5721 5727 5732 5738 5745 5751 5757 5763 5769 5774 5779 5783 5789
5814 5805 5796 5785 5775 5764 5753 5742 5732 5721 5710 5699 5690 5682 5675 5667 5662 5657 5654 5652 5652 5653 5655 5659 5663 5668 5673 5679 5686 5693 5700 5706 5713 5721 5728 5735 5742 5749 5755 5761 5767 5772 5777
5803 5793 5782 5771 5760 5748 5736 5723 5710 5697 5684 5672 5661 5652 5643 5636 5630 5626 5622 5621 5621 5621 5624 5628 5633 5639 5646 5653 5661 5669 5677 5684 5693 5702 5710 5718 5726 5734 5740 5747 5754 5759 5765
5790 5781 5769 5757 5744 5730 5716 5701 5686 5671 5657 5644 5633 5623 5614 5607 5600 5596 5592 5590 5589 5589 5592 5595 5601 5609 5616 5624 5633 5643 5652 5662 5672 5681 5691 5700 5708 5716 5724 5731 5738 5745 5752
5779 5767 5754 5741 5726 5711 5695 5678 5661 5645 5630 5618 5607 5597 5589 5582 5575 5570 5566 5564 5562 5562 5563 5566 5570 5577 5586 5595 5605 5615 5626 5638 5649 5659 5669 5679 5688 5698 5706 5714 5722 5730 5738
5766 5752 5738 5723 5707 5689 5671 5652 5634 5620 5608 5597 5586 5577 5569 5562 5555 5549 5545 5541 5539 5538 5539 5540 5544 5549 5556 5565 5576 5586 5599 5612 5623 5634 5645 5656 5667 5678 5688 5697 5705 5713 5722
5751 5737 5722 5705 5688 5669 5650 5631 5615 5600 5589 5578 5569 5559 5551 5543 5535 5530 5525 5522 5518 5516 5516 5518 5521 5525 5532 5539 5549 5559 5570 5583 5596 5608 5621 5633 5645 5657 5669 5679 5688 5696 5706
5736 5720 5704 5687 5669 5650 5632 5616 5601 5587 5574 5562 5552 5542 5534 5525 5517 5511 5506 5501 5498 5496 5495 5496 5499 5503 5509 5516 5525 5535 5544 5555 5567 5581 5595 5609 5622 5635 5648 5660 5670 5679 5688
5721 5706 5689 5671 5652 5634 5618 5604 5591 5577 5563 5551 5538 5527 5517 5508 5500 5493 5487 5482 5478 5475 5474 5474 5476 5480 5486 5493 5503 5513 5522 5531 5541 5555 5569 5582 5598 5614 5628 5640 5651 5662 5671
5709 5692 5674 5654 5636 5619 5603 5589 5576 5562 5549 5536 5524 5512 5502 5494 5485 5478 5471 5465 5461 5457 5455 5454 5454 5458 5463 5469 5480 5492 5502 5511 5519 5531 5542 5557 5574 5591 5606 5620 5632 5643 5654
5697 5678 5659 5639 5621 5606 5591 5577 5564 5550 5536 5524 5513 5502 5492 5482 5474 5466 5459 5452 5447 5442 5439 5436 5435 5437 5442 5447 5455 5467 5479 5489 5500 5510 5519 5533 5549 5566 5584 5601 5614 5626 5637
5683 5664 5644 5625 5609 5593 5579 5565 5551 5538 5526 5514 5504 5493 5482 5472 5463 5455 5447 5441 5435 5429 5425 5422 5419 5419 5422 5427 5433 5443 5455 5467 5478 5489 5500 5512 5526 5543 5561 5580 5596 5609 5621
5670 5650 5631 5613 5597 5583 5568 5553 5539 5526 5514 5504 5494 5483 5472 5461 5451 5443 5435 5428 5421 5416 5411 5408 5405 5403 5404 5408 5413 5421 5432 5445 5458 5469 5480 5491 5505 5520 5538 5557 5575 5590 5603
5658 5639 5620 5604 5588 5573 5558 5543 5528 5516 5506 5496 5485 5474 5463 5452 5440 5430 5421 5413 5407 5401 5396 5393 5390 5389 5388 5390 5395 5401 5410 5423 5437 5451 5463 5471 5484 5498 5515 5534 5552 5568 5583
Wind_Speed
17 19 20 22 24 26 27 28 29 31 33 35 36 38 38 38 38 37 37 36 35 34 34 32 31 30 30 30 31 30 30 29 27 26 23 21 19 18 17 18 19 22 25
14 15 17 19 20 22 25 26 28 29 31 33 36 38 40 42 43 43 42 42 41 39 38 37 36 35 33 33 33 33 33 32 31 29 28 25 22 20 19 18 18 20 21
11 12 14 16 18 20 22 23 25 26 28 30 33 35 38 40 42 43 44 44 44 44 43 42 41 40 38 37 36 35 35 35 34 33 32 29 26 23 22 21 20 20 19
13 14 16 18 20 21 23 25 26 28 29 30 32 33 35 37 39 41 42 43 44 45 46 46 45 44 43 42 41 39 38 38 38 37 36 33 30 28 27 25 24 22 21
14 15 17 18 20 22 24 25 27 29 31 32 33 34 36 37 38 40 41 42 44 45 46 46 47 48 47 46 46 45 43 42 41 41 40 38 36 33 31 30 28 26 24
17 19 21 23 25 27 29 31 32 34 35 36 37 38 39 40 41 42 43 44 44 45 46 47 48 49 50 50 49 49 49 47 45 45 44 43 41 39 37 35 32 30 28
22 25 27 30 32 35 37 39 41 42 43 44 45 46 46 47 47 47 48 48 48 48 47 47 48 49 51 51 51 52 52 52 50 49 48 47 45 44 43 40 36 34 32
28 31 34 37 40 42 45 47 49 51 53 54 55 56 56 55 56 55 55 55 54 54 53 51 50 49 50 53 54 54 54 54 54 53 51 50 49 48 47 45 41 39 36
34 37 40 43 46 49 52 55 57 60 62 63 64 65 65 65 65 64 63 62 60 59 59 58 56 55 53 53 54 56 56 55 55 55 54 53 52 51 51 50 47 44 41
40 43 46 49 52 56 59 62 65 68 70 71 73 73 73 73 72 71 70 70 68 66 64 63 62 61 60 58 56 56 57 58 58 57 56 55 54 54 54 54 52 49 46
46 49 52 55 59 62 65 69 72 75 77 79 79 80 80 80 79 78 77 75 74 72 70 68 67 66 65 64 63 61 59 59 60 60 59 57 56 55 56 56 56 54 51
49 53 56 59 62 65 69 72 75 78 80 82 83 84 84 84 84 84 82 80 78 77 75 74 72 70 69 69 69 67 65 62 61 62 62 61 59 58 57 58 58 57 55
52 56 60 63 67 71 74 77 80 81 83 85 87 88 88 88 88 88 88 86 84 82 80 78 77 74 73 72 73 72 70 68 66 64 64 64 62 61 59 59 59 58 57
57 60 64 68 72 76 80 82 85 86 88 90 92 92 93 93 92 92 92 91 90 88 86 84 82 79 77 76 75 76 75 74 72 69 66 66 65 64 62 60 60 59 58
60 64 68 73 77 80 83 86 89 92 94 97 98 97 97 96 96 94 94 93 92 91 90 88 86 84 82 80 79 78 79 79 77 74 71 68 67 67 65 63 62 61 61
64 68 73 76 80 83 87 91 94 97 98 98 96 94 91 89 87 86 84 84 84 85 86 86 86 84 84 83 83 82 82 82 81 79 76 73 70 69 69 68 66 65 63
68 72 76 79 83 87 91 95 97 95 91 86 82 77 74 72 70 70 70 71 72 73 75 77 79 81 81 83 85 86 85 84 84 83 81 78 75 72 71 72 71 68 66
72 75 79 83 87 91 95 96 91 83 77 71 68 66 65 64 64 63 63 62 63 65 67 68 70 73 76 79 83 87 88 88 88 87 85 83 81 77 74 74 74 73 70
75 78 83 88 91 93 94 88 79 73 69 68 67 66 65 64 63 63 62 61 60 61 63 66 67 68 70 73 77 82 87 91 92 91 89 87 86 82 79 76 76 76 74
78 82 87 90 92 92 86 77 71 69 68 68 66 65 64 63 62 61 60 59 59 59 60 63 67 69 69 69 71 75 81 87 92 94 93 91 89 87 84 80 77 77 76
81 85 88 90 90 87 79 72 68 67 68 67 66 64 62 60 59 58 57 57 57 57 57 59 63 68 71 72 70 70 72 79 86 91 94 95 93 90 87 84 81 78 77
83 86 88 89 86 80 74 71 70 70 68 65 62 59 57 55 54 52 51 50 50 51 53 55 57 62 68 73 73 71 69 71 77 83 90 95 96 93 90 86 83 82 80
83 86 87 86 81 75 71 70 70 69 64 58 53 51 51 49 48 47 45 44 43 43 44 47 51 55 60 66 74 75 73 71 72 77 83 91 96 96 93 87 83 82 81
84 86 86 82 76 72 71 72 71 65 58 52 49 48 49 49 48 47 45 44 42 41 41 41 43 48 52 58 66 74 76 74 72 74 79 85 93 97 96 92 86 81 79
85 85 83 77 72 71 72 72 69 61 53 49 49 50 51 51 51 50 48 46 44 43 42 41 40 42 45 51 57 66 74 76 74 73 75 81 88 96 99 97 93 87 82
84 83 78 73 71 72 72 71 66 56 50 49 51 52 53 53 53 52 51 49 47 45 43 42 41 40 41 44 50 58 68 76 77 74 72 75 83 91 98 100 98 95 90
Wind_Direction
277 278 278 278 280 281 282 281 278 274 273 272 271 270 269 267 264 261 258 255 253 252 252 251 249 249 249 250 250 251 252 253 253 253 250 241 231 226 222 220 221 224 224
290 289 288 286 285 284 282 280 278 275 273 272 271 270 269 269 268 266 263 261 258 254 252 251 249 248 248 248 249 249 249 250 249 248 247 243 235 228 223 219 216 217 219
307 302 298 294 292 290 288 286 284 282 278 275 273 272 271 269 268 267 266 264 261 258 255 252 250 248 248 247 248 248 248 248 248 247 245 241 236 231 225 218 214 214 215
307 304 302 302 301 299 297 296 294 292 289 286 283 280 277 275 273 271 269 266 263 260 257 254 251 249 247 247 247 247 247 246 245 245 244 241 236 233 229 222 216 215 214
323 321 318 315 311 307 304 302 299 297 295 292 290 288 285 282 280 277 275 272 268 265 261 257 254 250 247 246 245 245 245 244 244 242 241 240 237 234 232 228 221 217 216
330 324 318 313 308 304 301 298 295 292 290 288 286 285 284 283 281 280 278 276 273 270 266 262 258 255 251 247 245 244 244 243 242 241 240 239 237 235 233 231 226 222 220
322 316 311 307 304 301 299 296 293 291 289 287 285 284 283 281 280 278 276 275 273 271 269 266 263 259 255 251 247 244 242 242 241 241 239 238 236 236 235 233 230 226 225
316 312 310 308 306 304 302 300 299 297 295 293 291 289 288 286 283 280 277 274 271 270 268 267 264 262 258 254 251 247 244 241 240 240 240 238 236 236 237 236 233 229 227
315 313 312 310 309 307 305 303 301 299 297 295 293 292 290 288 286 283 280 277 273 270 267 265 263 261 260 257 254 251 247 244 241 241 241 239 237 235 236 236 235 232 229
317 315 314 312 311 309 307 304 302 300 298 296 294 292 290 288 286 284 281 279 276 273 269 265 261 259 258 256 255 253 250 247 243 241 241 241 239 237 236 236 236 234 231
317 316 315 312 310 308 306 303 301 300 298 296 294 292 290 288 286 284 281 279 276 274 271 266 262 258 255 254 253 252 250 248 246 243 240 240 240 238 237 236 236 235 233
317 315 312 310 307 304 302 301 299 298 297 295 293 290 289 287 285 282 280 278 275 273 271 268 264 259 255 252 250 249 249 248 246 244 241 239 238 237 237 236 236 236 234
315 313 310 309 307 305 304 302 301 299 297 295 292 290 287 285 283 281 278 276 273 271 269 267 264 261 256 251 248 246 246 245 244 243 242 239 236 236 236 236 236 237 235
315 313 312 311 310 308 306 304 303 300 298 295 293 290 288 285 283 280 278 275 273 271 268 265 263 260 257 253 248 244 243 242 242 241 241 240 237 234 234 235 235 235 235
317 317 315 313 311 309 308 306 304 301 298 296 294 292 290 288 286 283 281 278 275 272 270 266 263 259 255 252 248 244 240 239 239 239 238 238 237 234 233 233 233 233 233
319 316 315 314 313 312 310 308 304 301 299 298 297 296 294 291 288 285 282 279 276 273 271 268 263 259 255 250 247 243 239 237 236 236 236 235 235 234 232 231 232 231 231
318 318 318 317 316 315 312 308 305 305 304 303 301 298 295 292 289 285 281 277 273 270 267 264 261 257 253 248 245 242 239 235 234 234 233 233 232 231 231 231 231 231 230
321 321 321 320 319 317 313 311 312 312 310 307 305 303 300 297 294 290 285 281 275 268 263 259 256 254 250 245 242 239 237 234 232 231 231 231 230 229 229 229 230 230 230
325 325 324 323 321 318 316 317 318 316 315 313 311 308 305 302 298 293 289 283 278 272 264 257 253 250 247 243 239 236 234 232 231 229 229 229 229 228 227 227 229 230 230
328 327 326 324 321 319 320 322 320 319 318 316 313 310 307 303 299 295 290 285 280 275 267 259 252 248 244 240 237 234 232 230 229 228 227 226 227 227 226 225 226 228 229
330 328 327 324 322 322 323 323 322 320 318 316 314 311 308 304 301 298 294 289 283 278 272 265 256 249 244 240 236 233 231 230 229 227 226 225 224 225 225 224 224 226 228
330 328 327 325 324 325 326 325 324 322 320 319 317 315 313 310 307 304 300 294 288 283 277 270 263 253 246 241 237 233 231 231 229 227 226 225 223 222 222 222 223 224 226
330 329 328 326 327 327 327 327 325 324 323 322 321 320 319 318 315 311 306 301 294 287 281 275 267 259 250 244 239 234 231 230 230 228 226 224 223 221 219 218 219 222 224
332 331 329 328 329 330 329 328 327 326 326 326 326 325 324 322 319 316 311 305 299 292 286 280 273 264 255 247 241 235 231 228 228 228 227 225 223 221 218 215 214 217 221
333 332 330 330 331 332 331 330 329 329 329 329 329 327 324 321 318 315 311 306 301 295 288 282 278 270 260 250 242 237 231 227 225 225 227 226 223 221 219 215 212 212 214
334 333 331 332 333 333 333 332 331 331 330 329 328 326 322 319 316 312 309 305 300 295 289 283 278 272 264 254 244 238 232 227 224 223 224 226 224 222 220 216 213 212 212